Flag for U.S.A. Weather past 2 weeks in Worcester, Massachusetts, U.S.A.

Now
74 °F

Passing clouds.


Feels Like: 73 °F
Forecast: 66 / 80 °F
Wind: 13 mph from West

Location: Worcester Regional Airport

Current Time: Sep 3, 2014 at 3:16:47 AM

Latest Report: Sep 3, 2014 at 1:54 AM


Visibility: 10 mi

Pressure: 29.74 "Hg

Humidity: 85%

Dew point: 69 °F

Location of WorcesterLocation

Historic Weather in Worcester — Graph

°F

Worcester temperature yesterday

Maximum temperature yesterday: 85 °F (at 1:54 PM)
Minimum temperature yesterday: 69 °F (at 3:01 AM)
Average temperature yesterday: 75 °F

Past Weeks' High & Low Weather Summary

 TemperatureHumidityPressure
High85 °F (Sep 2, 1:54 PM)100% (Aug 22, 1:54 AM)30.31 "Hg (Aug 22, 1:54 AM)
Low54 °F (Aug 19, 3:54 AM)37% (Aug 26, 3:54 PM)29.74 "Hg (Sep 3, 1:54 AM)
Average68 °F74%30.06 "Hg
* Reported Aug 19 1:54 AM — Sep 3 1:54 AM, Worcester, Weather by CustomWeather, © 2014

Note: Actual official high and low records may vary slightly from our data, if they occured in-between our weather recording intervals... More about our weather records

Advertising

Worcester weather history for previous 24 hours

 ConditionsComfort  
Time TempWeatherWind HumidityBarometerVisibility
1:54 AM
Sep 3
74 °FPassing clouds.13 mph85%29.74 "Hg10 mi
12:54 AM73 °FClear.13 mph88%29.74 "Hg10 mi
11:54 PM
Sep 2
73 °FClear.12 mph90%29.75 "Hg10 mi
10:54 PM74 °FClear.12 mph88%29.78 "Hg10 mi
9:54 PM74 °FClear.13 mph91%29.79 "Hg10 mi
8:54 PM75 °FClear.12 mph90%29.80 "Hg10 mi
7:54 PM76 °FSunny.7 mph88%29.81 "Hg10 mi
6:54 PM77 °FPassing clouds.3 mph82%29.82 "Hg10 mi
5:54 PM77 °FPassing clouds.No wind79%29.83 "Hg10 mi
5:02 PM72 °FStrong thunderstorms. Fog.20 mph91%29.88 "Hg0 mi
4:57 PM72 °FStrong thunderstorms. Fog.26 mph93%29.87 "Hg0 mi
3:54 PM81 °FBroken clouds.6 mph72%29.84 "Hg10 mi
2:54 PM82 °FThundershowers. Broken clouds.9 mph72%29.85 "Hg10 mi
1:54 PM85 °FPassing clouds.13 mph59%29.86 "Hg10 mi
12:54 PM83 °FScattered clouds.13 mph63%29.88 "Hg10 mi
11:54 AM82 °FPassing clouds.7 mph67%29.91 "Hg10 mi
10:54 AM81 °FSunny.8 mph69%29.93 "Hg10 mi
9:54 AM78 °FSunny.7 mph74%29.93 "Hg10 mi
8:54 AM76 °FSunny.7 mph82%29.94 "Hg10 mi
7:54 AM73 °FSunny.7 mph90%29.93 "Hg7 mi
6:54 AM70 °FFog.7 mph97%29.92 "Hg3 mi
5:54 AM69 °FFog.8 mph96%29.91 "Hg4 mi
4:54 AM70 °FFog.7 mph93%29.90 "Hg5 mi
4:02 AM69 °FFog.6 mph96%29.93 "Hg3 mi
3:54 AM69 °FFog.5 mph96%29.91 "Hg2 mi
3:01 AM69 °FFog.7 mph96%29.94 "Hg2 mi
Weather by CustomWeather, © 2014

See weather overviewHow to use our weather pages